DJ2RF Weather Reports


time (UTC)temp
C
wind
direction
speed
KPH
gust
KPH
rain 1hr
cm
rain 24hr
cm
rain mn
cm
humidity
%
barometer
mb
20260506001518 12 360 0.0 0.0 0.00 0.00 0.00 79 1010.1
20260506000651 12 360 0.0 0.0 0.00 0.00 0.00 79 1010.3
20260505235741 12 360 0.0 0.0 0.00 0.00 0.00 79 1010.3
20260505234910 12 360 0.0 0.0 0.00 0.00 0.00 78 1010.4
20260505234111 12 360 0.0 0.0 0.00 0.00 0.00 78 1010.5
20260505233129 12 360 0.0 0.0 0.00 0.00 0.00 78 1010.6
20260505232131 13 360 0.0 0.0 0.00 0.00 0.00 78 1010.7
20260505231223 13 360 0.0 0.0 0.00 0.00 0.00 78 1010.7
20260505230237 13 360 0.0 0.0 0.00 0.00 0.00 78 1010.8
20260505225257 13 360 0.0 0.0 0.00 0.00 0.00 79 1010.9
20260505224307 13 360 0.0 0.0 0.00 0.00 0.00 81 1010.7
20260505223422 13 360 0.0 0.0 0.00 0.00 0.00 82 1010.7
20260505222551 13 360 0.0 0.0 0.00 0.00 0.00 82 1010.7
20260505221737 13 360 0.0 0.0 0.00 0.00 0.00 82 1010.4
20260505220755 13 360 0.0 0.0 0.00 0.00 0.00 81 1010.3
20260505215825 13 360 0.0 0.0 0.00 0.00 0.00 81 1010.2
20260505214920 13 360 0.0 0.0 0.00 0.00 0.00 81 1010.2
20260505214008 13 360 0.0 0.0 0.00 0.00 0.00 81 1010.3
20260505213147 13 360 0.0 0.0 0.00 0.00 0.00 81 1010.5
20260505212341 13 360 0.0 0.0 0.00 0.00 0.00 81 1010.5
20260505211343 13 360 0.0 0.0 0.00 0.00 0.00 81 1010.7
20260505210507 13 360 0.0 0.0 0.00 0.00 0.00 81 1010.6
20260505205629 13 360 0.0 0.0 0.00 0.00 0.03 80 1010.6
20260505204714 13 360 0.0 0.0 0.00 0.00 0.03 80 1010.5
20260505203844 13 360 0.0 0.0 0.00 0.00 0.03 80 1010.4
20260505202902 13 360 0.0 0.0 0.00 0.00 0.03 80 1010.3
20260505202029 13 360 0.0 0.0 0.00 0.00 0.03 80 1010.2
20260505201158 13 360 0.0 0.0 0.00 0.00 0.03 80 1010.0
20260505200302 13 360 0.0 0.0 0.00 0.00 0.05 79 1009.9
20260505195459 13 360 0.0 0.0 0.00 0.00 0.05 79 1009.8
20260505194642 14 360 0.0 0.0 0.00 0.00 0.05 78 1009.8
20260505193827 14 360 0.0 0.0 0.00 0.00 0.05 78 1009.6
20260505192836 14 360 0.0 0.0 0.00 0.00 0.05 78 1009.4
20260505191849 14 360 0.0 0.0 0.00 0.00 0.05 78 1009.4
20260505191007 14 360 0.0 0.0 0.00 0.00 0.05 78 1009.4
20260505190155 14 360 0.0 0.0 0.00 0.00 0.05 78 1009.2
20260505185201 15 360 0.0 0.0 0.00 0.00 0.05 77 1008.9
20260505184217 15 360 0.0 0.0 0.00 0.00 0.05 76 1008.7
20260505183341 15 360 0.0 0.0 0.00 0.00 0.05 76 1008.6
20260505182427 15 360 0.0 0.0 0.00 0.00 0.05 75 1008.8
20260505181456 15 360 0.0 0.0 0.00 0.00 0.05 76 1008.8
20260505180502 15 360 0.0 0.0 0.00 0.00 0.05 76 1008.8
20260505175557 15 360 0.0 0.0 0.00 0.00 0.05 76 1008.7
20260505174712 16 360 0.0 0.0 0.00 0.00 0.05 75 1008.8
20260505173803 16 360 0.0 0.0 0.00 0.00 0.05 75 1008.5
20260505172958 16 360 0.0 0.0 0.00 0.00 0.05 74 1008.6
20260505172147 16 360 0.0 0.0 0.00 0.00 0.05 74 1008.6
20260505171320 16 360 0.0 0.0 0.00 0.00 0.05 72 1008.5
20260505170409 16 360 0.0 0.0 0.00 0.00 0.05 73 1008.6
20260505165539 16 360 0.0 0.0 0.00 0.00 0.05 73 1008.4
20260505164716 16 360 0.0 0.0 0.00 0.00 0.05 73 1008.6
20260505163745 16 360 0.0 0.0 0.00 0.00 0.05 72 1008.5
20260505162923 16 360 0.0 0.0 0.00 0.00 0.05 72 1008.7
20260505161952 16 360 0.0 0.0 0.00 0.00 0.05 71 1008.8
20260505161004 16 360 0.0 0.0 0.00 0.00 0.05 71 1008.6
20260505152442 17 360 0.0 0.0 0.00 0.00 0.05 70 1008.5
20260505151516 17 360 0.0 0.0 0.00 0.00 0.05 69 1008.5
20260505150653 17 360 0.0 0.0 0.00 0.00 0.05 68 1008.6
20260505124837 23 360 0.0 0.0 0.00 0.00 0.05 48 1008.0
20260505123942 23 360 0.0 0.0 0.00 0.00 0.05 49 1008.1
20260505123016 23 360 0.0 0.0 0.00 0.00 0.05 48 1008.1
20260505122147 23 360 0.0 0.0 0.00 0.00 0.05 48 1008.1
20260505121326 23 360 0.0 0.0 0.00 0.00 0.05 49 1008.1
20260505120413 23 360 0.0 0.0 0.00 0.00 0.05 49 1008.2
20260505115603 23 360 0.0 0.0 0.00 0.00 0.05 52 1008.2
20260505114707 23 360 0.0 0.0 0.00 0.00 0.05 50 1008.4
20260505113814 23 360 0.0 0.0 0.00 0.00 0.05 51 1008.4
20260505113017 23 360 0.0 0.0 0.00 0.00 0.05 50 1008.4
20260505112052 23 360 0.0 0.0 0.00 0.00 0.05 51 1008.5
20260505111242 22 360 0.0 0.0 0.00 0.00 0.05 54 1008.7
20260505110433 22 360 0.0 0.0 0.00 0.00 0.05 54 1008.7
20260505102111 20 360 0.0 0.0 0.00 0.00 0.05 59 1009.3
20260505101117 20 360 0.0 0.0 0.00 0.00 0.05 61 1009.4
20260505100251 21 360 0.0 0.0 0.00 0.00 0.05 61 1009.4
20260505095357 20 360 0.0 0.0 0.00 0.00 0.05 63 1009.5
20260505094537 20 360 0.0 0.0 0.00 0.00 0.05 63 1009.5
20260505093546 20 360 0.0 0.0 0.00 0.00 0.05 65 1009.6
20260505092720 20 360 0.0 0.0 0.00 0.00 0.05 64 1009.8
20260505091745 19 360 0.0 0.0 0.00 0.00 0.05 65 1009.8
20260505090942 19 360 0.0 0.0 0.00 0.00 0.05 64 1009.9
20260505090045 18 360 0.0 0.0 0.00 0.00 0.05 68 1010.0
20260505085152 18 360 0.0 0.0 0.00 0.00 0.05 70 1010.0
20260505084202 18 360 0.0 0.0 0.00 0.00 0.05 71 1010.1
20260505083248 17 360 0.0 0.0 0.00 0.00 0.05 72 1010.3
20260505082407 -17 360 0.0 0.0 0.00 0.00 0.00
20260505081543 14 360 0.0 0.0 0.00 0.00 0.05 80 1010.7
20260505080722 14 360 0.0 0.0 0.00 0.00 0.05 80 1010.6
20260505075817 14 360 0.0 0.0 0.00 0.00 0.05 80 1010.6
20260505074958 14 360 0.0 0.0 0.00 0.00 0.05 80 1010.6
20260505074041 14 360 0.0 0.0 0.00 0.00 0.05 80 1010.6
20260505073100 14 360 0.0 0.0 0.00 0.00 0.05 80 1010.6
20260505072136 14 360 0.0 0.0 0.00 0.00 0.05 80 1010.6
20260505071332 14 360 0.0 0.0 0.00 0.00 0.05 80 1010.6
20260505070439 13 360 0.0 0.0 0.00 0.00 0.05 80 1010.7
20260505065527 13 360 0.0 0.0 0.00 0.00 0.05 81 1010.7
20260505064540 11 360 0.0 0.0 0.00 0.00 0.05 85 1011.1
20260505063732 11 360 0.0 0.0 0.00 0.00 0.05 85 1011.1
20260505062922 11 360 0.0 0.0 0.00 0.00 0.05 85 1011.1
20260505061939 11 360 0.0 0.0 0.00 0.00 0.05 85 1011.1
20260505060958 11 360 0.0 0.0 0.00 0.00 0.05 85 1011.1
20260505060054 11 360 0.0 0.0 0.00 0.00 0.05 85 1011.1
20260505055142 11 360 0.0 0.0 0.00 0.00 0.05 85 1011.1
20260505054301 11 360 0.0 0.0 0.00 0.00 0.05 85 1011.1
20260505053351 11 360 0.0 0.0 0.00 0.00 0.05 85 1011.1
20260505052355 11 360 0.0 0.0 0.00 0.00 0.05 85 1011.1
20260505051443 11 360 0.0 0.0 0.00 0.00 0.05 85 1011.1
20260505050605 11 360 0.0 0.0 0.00 0.00 0.05 85 1011.1
20260505041152 11 360 0.0 0.0 0.00 0.00 0.05 84 1011.1
20260505040255 11 360 0.0 0.0 0.00 0.00 0.05 84 1011.1
20260505035423 11 360 0.0 0.0 0.00 0.00 0.05 84 1011.2
20260505034623 11 360 0.0 0.0 0.00 0.00 0.05 84 1011.2
20260505033744 11 360 0.0 0.0 0.00 0.00 0.05 84 1011.2
20260505032920 11 360 0.0 0.0 0.00 0.00 0.05 84 1011.3
20260505031957 11 360 0.0 0.0 0.00 0.00 0.05 83 1011.4
20260505031005 12 360 0.0 0.0 0.00 0.00 0.05 83 1011.3
20260505030017 12 360 0.0 0.0 0.00 0.00 0.05 84 1011.5
20260505025114 12 360 0.0 0.0 0.00 0.00 0.05 84 1011.5
20260505024228 12 360 0.0 0.0 0.00 0.00 0.05 84 1011.7
20260505023323 12 360 0.0 0.0 0.00 0.00 0.05 84 1011.7
20260505022406 12 360 0.0 0.0 0.00 0.00 0.05 84 1011.6
20260505021442 13 360 0.0 0.0 0.00 0.00 0.05 84 1011.8
20260505020459 13 360 0.0 0.0 0.00 0.00 0.05 84 1011.8
20260505015655 13 360 0.0 0.0 0.00 0.00 0.05 83 1011.8
20260505014720 13 360 0.0 0.0 0.00 0.00 0.05 82 1011.8
20260505013912 13 360 0.0 0.0 0.00 0.00 0.05 82 1011.8
20260505013032 13 360 0.0 0.0 0.00 0.00 0.05 83 1011.8
20260505012032 13 360 0.0 0.0 0.00 0.00 0.05 82 1011.8
20260505011132 13 360 0.0 0.0 0.00 0.00 0.05 82 1011.8
20260505010153 14 360 0.0 0.0 0.00 0.00 0.05 82 1011.8
20260505005157 13 360 0.0 0.0 0.00 0.00 0.05 82 1012.0
20260505004205 14 360 0.0 0.0 0.00 0.00 0.05 81 1012.2
20260505003331 14 360 0.0 0.0 0.00 0.00 0.05 82 1012.3
20260505002527 14 360 0.0 0.0 0.00 0.00 0.05 82 1012.1